Location: Ellerstadt
(49.4644°N, 8.2615°E)
Time: 22:07:50
(UTC+00:00)

FALCON 9 DEB - Pass Details

Date: 03 March 2021
Orbit: 371 x 387 km, 53.0° (Epoch: 13 April)

Event Time Altitude Azimuth Distance (km) Brightness Sun altitude
Rises 19:18:34 0° 289° (WNW) 2,295 8.4 -21.0°
Reaches altitude 10° 19:20:40 10° 295° (WNW) 1,437 6.9 -21.3°
Enters shadow 19:23:15 44° 333° (NNW) 559 3.9 -21.7°
